sat.trackr.live / text

‹ back to catalog

STARLINK-30760

NORAD 58187 · 2023-167N

PAYLOAD ACTIVE UNKNOWN

§ Identity

Operator
Country
US
Launch date
2023-10-30
Launch site
AFETR
Launch vehicle
Mass (kg)
RCS (m²)

Purposes: comms

External: N2YO · Heavens-Above · Gunter

§ Orbital elements

Epoch: 2026-09-20T00:18:02.335392Z

Period
94.27 min
Inclination
43.0060°
Eccentricity
0.0001531
Mean motion
15.27582056 rev/d
Perigee alt
482.0 km
Apogee alt
484.1 km
Semi-major
6,861.2 km
B*
3.7416e-5
RAAN
126.0157°
Arg perigee
265.8272°
Mean anomaly
94.2404°
Rev number
16,070

§ Raw data

STARLINK-307601 58187U 23167N   26263.01252703  .00000768  00000+0  37416-4 0  99922 58187  43.0060 126.0157 0001531 265.8272  94.2404 15.27582056160706

JSON: /api/v1/satellites/58187 · /tle

For live sub-satellite position, see the globe view (requires WebGL).

§ Visibility from observer

Set your observer location to see the next 7 days of passes ≥ 10°. The values pass through the URL so the page stays shareable.

No JS? Fill the form by hand. The geolocation button needs JavaScript.